TimePST,TemperatureF,Dew PointF,Humidity,Sea Level PressureIn,VisibilityMPH,Wind Direction,Wind SpeedMPH,Gust SpeedMPH,PrecipitationIn,Events,Conditions,WindDirDegrees,DateUTC
12:52 AM,43.0,37.0,80,30.48,-9999.0,Calm,Calm,-,N/A,,Unknown,0,2013-03-01 08:52:00
1:52 AM,39.0,35.1,86,30.49,-9999.0,South,5.8,-,N/A,,Unknown,180,2013-03-01 09:52:00
2:52 AM,34.0,30.9,89,30.51,-9999.0,SSE,5.8,-,N/A,,Unknown,150,2013-03-01 10:52:00
3:52 AM,33.1,30.0,89,30.51,-9999.0,SSE,6.9,-,N/A,,Unknown,160,2013-03-01 11:52:00
4:52 AM,33.1,30.0,89,30.51,-9999.0,SSE,6.9,-,N/A,,Unknown,160,2013-03-01 12:52:00
5:52 AM,30.0,28.0,92,30.52,-9999.0,SSE,4.6,-,N/A,,Unknown,160,2013-03-01 13:52:00
6:52 AM,33.1,30.0,89,30.50,-9999.0,SSE,10.4,-,N/A,,Unknown,160,2013-03-01 14:52:00
7:52 AM,39.9,34.0,79,30.49,-9999.0,SW,4.6,-,N/A,,Unknown,230,2013-03-01 15:52:00
8:52 AM,44.1,35.1,71,30.49,-9999.0,WNW,5.8,-,N/A,,Unknown,300,2013-03-01 16:52:00
9:52 AM,50.0,36.0,59,30.49,-9999.0,Calm,Calm,-,N/A,,Unknown,0,2013-03-01 17:52:00
10:52 AM,53.1,35.1,50,30.48,-9999.0,Variable,4.6,-,N/A,,Unknown,0,2013-03-01 18:52:00
11:52 AM,55.0,35.1,47,30.46,-9999.0,Calm,Calm,-,N/A,,Unknown,0,2013-03-01 19:52:00
12:52 PM,57.9,34.0,41,30.41,-9999.0,Calm,Calm,-,N/A,,Unknown,0,2013-03-01 20:52:00
1:52 PM,60.1,30.9,33,30.39,-9999.0,WSW,4.6,-,N/A,,Unknown,250,2013-03-01 21:52:00
2:52 PM,61.0,30.0,31,30.39,-9999.0,Variable,4.6,-,N/A,,Unknown,0,2013-03-01 22:52:00
3:52 PM,61.0,27.0,27,30.38,-9999.0,WSW,6.9,-,N/A,,Unknown,240,2013-03-01 23:52:00
4:52 PM,60.1,28.0,30,30.38,-9999.0,WSW,4.6,-,N/A,,Unknown,240,2013-03-02 00:52:00
5:52 PM,53.1,27.0,37,30.40,-9999.0,Calm,Calm,-,N/A,,Unknown,0,2013-03-02 01:52:00
6:52 PM,46.0,26.1,46,30.43,-9999.0,Calm,Calm,-,N/A,,Unknown,0,2013-03-02 02:52:00
7:52 PM,39.9,27.0,60,30.43,-9999.0,South,4.6,-,N/A,,Unknown,170,2013-03-02 03:52:00
8:52 PM,39.9,28.0,63,30.42,-9999.0,SSW,5.8,-,N/A,,Unknown,200,2013-03-02 04:52:00
9:52 PM,39.9,30.0,68,30.41,-9999.0,NNE,3.5,-,N/A,,Unknown,20,2013-03-02 05:52:00
10:52 PM,37.9,30.9,76,30.40,-9999.0,NE,3.5,-,N/A,,Unknown,40,2013-03-02 06:52:00
11:52 PM,35.1,30.0,82,30.39,-9999.0,East,4.6,-,N/A,,Unknown,80,2013-03-02 07:52:00